ATLAS 5 CENTAUR DEB, 44015

Orbit data source: Space-Track

ATLAS 5 CENTAUR DEB, 44015 is space debris in HEO originally from a launch on Wed, 17 Sep 2014 UTC launched from the Air Force Eastern Test Range (AFETR). Debris objects in space refer to the collection of defunct objects orbiting the Earth. Examples of debris include non-operational satellites, rocket bodies, and fragments generated from explosions, collisions, or faulty payload assembly.

Loading next visibility...
Identifier
44015, 2014-055BW
Orbit
HEO
Country
Flag of USUS
Related business
Flag of USUnited Launch Alliance/Lockheed Martin (US)
Manufacturer
Unknown
Mission
Spacecraft
Bus & Motor
Unknown
Mass
Unknown
Launch date (UTC)
2014-09-17 (11 years ago)
Launch vehicle
Unknown
Launch site
Air Force Eastern Test Range (AFETR)
Object type
Payload
Rocket body
Debris
Shape & HBR
Unknown shape, 1.1 m
Radar Cross Section
RCS unknown

Expand to show TLE details & history
Last TLE update: 1 day ago

TLE from 1 day ago
0 ATLAS 5 CENTAUR DEB
1 44015U 14055BW  25348.31263570  .00000040  00000-0  00000-0 0  9992
2 44015  21.0465 106.9894 5051531 232.0069  70.6712  1.95142038 50958
Epoch: 2025-12-14T07:30Z
TLE epoch observation values (Epoch: 2025-12-14T07:30:11.724Z)
Latitude
0.00001°
Longitude
-88.8637°
Altitude
22,868.583 km
Speed
3.539 km/s
True Right ascension
07h 07m 38s
True Declination
0° 00' 00"
Sunlit
Object was in daylight at epoch
Visualization orbit readout
Latitude
Unknown
Longitude
Unknown
Altitude
Unknown
Speed
Unknown
Apparent Right ascension
Unknown
Apparent Declination
Unknown
Sunlit
N/A
Visualization observer readout
Local Sidereal Time
12:47:54
Azimuth
Unknown
Elevation
Unknown
Doppler factor
Unknown
Orbital elements
Apogee altitude
34,339.418 km
Perigee altitude
7,008.512 km
Semi-major axis
27,052.102 km
Eccentricity
0.50515
Inclination
21.0465°
RAAN
106.9894°
Arg. of periapsis
232.0069°
True anomaly
128.00745°
Mean anomaly
70.6712°
Eccentric anomaly
99.23888°
Mean motion
0.4878 °/min
Orbital period
738.01 mins
BSTAR
0
Loading maneuver chart data...
Computing Atmospheric mass density...

Documentation

Showing up to 5 results
|